{"data":{"norad_id":64709,"intl_designator":"2025-142P","name":"STARLINK-34499","alt_names":[],"object_type":"PAYLOAD","status":"ACTIVE","operator":null,"country":"US","launch_date":"2025-06-28","launch_site_code":"AFWTR","launch_vehicle":null,"mission":null,"orbit_class":"UNKNOWN","rcs_meters":null,"size_class":null,"mass_kg":null,"dimensions":null,"purposes":["comms"],"wikipedia_slug":null,"has_3d_model":false,"image_url":null,"decayed_at":null,"tle_current":{"epoch":"2026-05-25T04:48:21.150720Z","epoch_age_seconds":53666,"freshness":"FRESH","line1":"1 64709U 25142P   26145.20024480  .00002588  00000+0  22459-3 0  9995","line2":"2 64709  70.0004 121.4306 0004102 263.0912  96.9780 14.98333760 50925","mean_motion":14.9833376,"eccentricity":0.0004102,"inclination_deg":70.0004,"raan_deg":121.4306,"arg_perigee_deg":263.0912,"mean_anomaly_deg":96.978,"bstar":0.00022459,"rev_number":5092,"period_min":96.106757949577,"perigee_km":569.19329912462,"apogee_km":574.89522783317,"semimajor_km":6950.1812634789,"source":"CELESTRAK","updated_at":"2026-05-25T13:38:20.514306Z"}}}